Location: Ellingshausen
(50.5460°N, 10.4723°E)
Time: 00:16:52
(UTC+00:00)

Cosmos 1743 Rocket - Pass Details

Date: 18 January 2026
Orbit: 597 x 626 km, 82.6° (Epoch: 18 February)

Event Time Altitude Azimuth Distance (km) Brightness Sun altitude
Rises 04:47:32 0° 184° (S) 2,897 7.0 -22.1°
Reaches altitude 10° 04:49:46 10° 184° (S) 1,993 6.2 -21.8°
Maximum altitude 04:54:11 78° 98° (E) 642 3.6 -21.1°
Drops below altitude 10° 04:58:36 10° 13° (NNE) 1,997 6.2 -20.4°
Sets 05:00:50 0° 12° (NNE) 2,903 7.1 -20.0°
